Satellite: NOAA-12
Catalog number: 21263
Epoch time:      10035.84317845
Element set:     439
Inclination:      098.7698 deg
RA of node:       048.9927 deg
Eccentricity:    0.0012228
Arg of perigee:   187.2823 deg
Mean anomaly:     172.8658 deg
Mean motion:   14.25614185 rev/day
Decay rate:        5.8e-07 rev/day^2
Epoch rev:           97358
Checksum:              344

Satellite: MET-3/5
Catalog number: 21655
Epoch time:      10034.85476484
Element set:     728
Inclination:      082.5537 deg
RA of node:       042.8348 deg
Eccentricity:    0.0012843
Arg of perigee:   327.4759 deg
Mean anomaly:     032.5555 deg
Mean motion:   13.17019235 rev/day
Decay rate:        5.1e-07 rev/day^2
Epoch rev:           88812
Checksum:              313

Satellite: MET-2/21
Catalog number: 22782
Epoch time:      10034.87292447
Element set:    0687
Inclination:      082.5496 deg
RA of node:       358.2049 deg
Eccentricity:    0.0023853
Arg of perigee:   058.6303 deg
Mean anomaly:     301.7196 deg
Mean motion:   13.83641279 rev/day
Decay rate:        7.6e-07 rev/day^2
Epoch rev:           82964
Checksum:              333

Satellite: OKEAN-4
Catalog number: 23317
Epoch time:      10035.78736857
Element set:     145
Inclination:      082.5417 deg
RA of node:       117.4410 deg
Eccentricity:    0.0021063
Arg of perigee:   322.2117 deg
Mean anomaly:     037.7644 deg
Mean motion:   14.82762280 rev/day
Decay rate:       1.06e-06 rev/day^2
Epoch rev:           82683
Checksum:              280

Satellite: NOAA-14
Catalog number: 23455
Epoch time:      10034.73743778
Element set:    0933
Inclination:      098.8885 deg
RA of node:       116.3671 deg
Eccentricity:    0.0008569
Arg of perigee:   253.8364 deg
Mean anomaly:     106.1864 deg
Mean motion:   14.13778194 rev/day
Decay rate:        2.7e-07 rev/day^2
Epoch rev:           77864
Checksum:              346

Satellite: NOAA-15
Catalog number: 25338
Epoch time:      10034.93855721
Element set:    0255
Inclination:      098.6075 deg
RA of node:       024.3308 deg
Eccentricity:    0.0011540
Arg of perigee:   101.7288 deg
Mean anomaly:     258.5219 deg
Mean motion:   14.24804961 rev/day
Decay rate:        4.5e-07 rev/day^2
Epoch rev:           60977
Checksum:              300

Satellite: RESURS
Catalog number: 25394
Epoch time:      10035.63584759
Element set:     423
Inclination:      098.3160 deg
RA of node:       060.8670 deg
Eccentricity:    0.0000531
Arg of perigee:   238.5215 deg
Mean anomaly:     121.5909 deg
Mean motion:   14.24192371 rev/day
Decay rate:       -3.2e-07 rev/day^2
Epoch rev:           60148
Checksum:              273

Satellite: FENGYUN1
Catalog number: 25730
Epoch time:      10035.65106486
Element set:     965
Inclination:      098.7755 deg
RA of node:       004.1233 deg
Eccentricity:    0.0023631
Arg of perigee:   280.6255 deg
Mean anomaly:     079.2241 deg
Mean motion:   14.08168767 rev/day
Decay rate:       -1.2e-07 rev/day^2
Epoch rev:           55303
Checksum:              283

Satellite: OKEAN-0
Catalog number: 25860
Epoch time:      10034.78724234
Element set:    0906
Inclination:      097.8157 deg
RA of node:       012.1425 deg
Eccentricity:    0.0001514
Arg of perigee:   102.8416 deg
Mean anomaly:     257.2962 deg
Mean motion:   14.73610760 rev/day
Decay rate:        1.9e-07 rev/day^2
Epoch rev:           56725
Checksum:              280

Satellite: NOAA-16
Catalog number: 26536
Epoch time:      10034.91891141
Element set:    0733
Inclination:      099.1773 deg
RA of node:       049.2040 deg
Eccentricity:    0.0010401
Arg of perigee:   355.5608 deg
Mean anomaly:     004.5430 deg
Mean motion:   14.12545042 rev/day
Decay rate:      -1.42e-06 rev/day^2
Epoch rev:           48301
Checksum:              255

Satellite: NOAA-17
Catalog number: 27453
Epoch time:      10034.78795436
Element set:    0740
Inclination:      098.4514 deg
RA of node:       090.4862 deg
Eccentricity:    0.0012073
Arg of perigee:   163.1041 deg
Mean anomaly:     197.0546 deg
Mean motion:   14.24127194 rev/day
Decay rate:       -6.3e-07 rev/day^2
Epoch rev:           39571
Checksum:              299

Satellite: NOAA-18
Catalog number: 28654
Epoch time:      10034.80738103
Element set:    0223
Inclination:      098.9364 deg
RA of node:       341.5582 deg
Eccentricity:    0.0015155
Arg of perigee:   070.4292 deg
Mean anomaly:     289.8500 deg
Mean motion:   14.11324728 rev/day
Decay rate:        4.4e-07 rev/day^2
Epoch rev:           24262
Checksum:              287

Satellite: NOAA-19
Catalog number: 33591
Epoch time:      10034.83727656
Element set:    0428
Inclination:      098.7756 deg
RA of node:       339.8864 deg
Eccentricity:    0.0013558
Arg of perigee:   309.6020 deg
Mean anomaly:     050.3980 deg
Mean motion:   14.11021702 rev/day
Decay rate:       1.32e-06 rev/day^2
Epoch rev:           05110
Checksum:              289

/EX
SB KEPS @ AMSAT  $ORB10035.M
Orbital Elements  10035.MISC

HR AMSAT ORBITAL ELEMENTS FOR MANNED AND MISCELLANEOUS SATELLITES
FROM WA5QGD FORT WORTH,TX February 4, 2010
Send Subscribe/unsubscribe to KEPS at http://www.amsat.org/mailman/listinfo/kep
BID: ORB10035.M
TO ALL RADIO AMATEURS BT

